Weather History for Ft Lauderdale, FL

Change the Weather History Date:

Monday, November 5, 2012

  Actual Average Record
Temperature  
Mean Temperature 74 °F 77 °F  
Max Temperature 81 °F 83 °F 90 °F (2002)
Min Temperature 67 °F 71 °F 44 °F (1930)
Degree Days  
Heating Degree Days 0 0  
Month to date heating degree days 0 0  
Since 1 July heating degree days 0 0  
Cooling Degree Days 9 12  
Month to date cooling degree days 36 63  
Year to date cooling degree days 4193 4257  
Growing Degree Days 23 (Base 50)    
Moisture  
Dew Point 59 °F    
Average Humidity 68    
Maximum Humidity 93    
Minimum Humidity 43    
Precipitation  
Precipitation 0.00 in 0.15 in 4.71 in (1998)
Month to date precipitation 0.00 0.79  
Year to date precipitation 59.29 57.27  
Snow  
Snow 0.00 in - - ()
Month to date snowfall 0.0  
Since 1 July snowfall 0.0  
Since 1 September snowfall 0.0  
Snow Depth 0.00 in    
Sea Level Pressure  
Sea Level Pressure 29.98 in    
Wind  
Wind Speed 3 mph (WNW)    
Max Wind Speed 13 mph    
Max Gust Speed 18 mph    
Visibility 10 miles    
Events      
T = Trace of Precipitation, MM = Missing Value Source: NWS Daily Summary

Daily Weather History Graph

Daily Weather History Graph

Search for Another Location

Airport:

Trip Planner

Search our weather history database for the weather conditions in past years. The results will help you decide how hot, cold, wet, or windy it might be!

Date:

Astronomy

Nov. 05, 2012 Rise Set
Actual Time 6:32 AM EST 5:35 PM EST
Civil Twilight 6:08 AM EST 5:59 PM EST
Nautical Twilight 5:40 AM EST 6:27 PM EST
Astronomical Twilight 5:13 AM EST 6:54 PM EST
Moon 11:10 PM EST (11/5) 11:49 AM EST (11/5)
Length of Visible Light 11h 51m
Length of Day
11h 03m
Waning Gibbous, 63% of the Moon is Illuminated
Nov 5
Waning Gibbous
Nov 6
Last Quarter
Nov 13
New
Nov 20
First Quarter
Nov 28
Full

Hourly Weather History & Observations

Time (EST) Temp. Heat Index Dew Point Humidity Pressure Visibility Wind Dir Wind Speed Gust Speed Precip Events Conditions
12:53 AM 70.0 °F - 63.0 °F 78% 30.01 in 10.0 mi West 3.5 mph - N/A   Partly Cloudy
1:53 AM 69.1 °F - 63.0 °F 81% 30.01 in 10.0 mi West 4.6 mph - N/A   Partly Cloudy
2:53 AM 68.0 °F - 63.0 °F 84% 29.99 in 10.0 mi Calm Calm - N/A   Partly Cloudy
3:53 AM 68.0 °F - 64.0 °F 87% 29.98 in 10.0 mi Calm Calm - N/A   Partly Cloudy
4:53 AM 69.1 °F - 64.0 °F 84% 29.99 in 10.0 mi Calm Calm - N/A   Partly Cloudy
5:53 AM 68.0 °F - 62.1 °F 81% 30.00 in 10.0 mi Calm Calm - N/A   Clear
6:53 AM 66.9 °F - 64.0 °F 90% 30.01 in 9.0 mi Calm Calm - N/A   Partly Cloudy
7:53 AM 69.1 °F - 63.0 °F 81% 30.02 in 10.0 mi West 3.5 mph - N/A   Mostly Cloudy
8:53 AM 71.1 °F - 60.1 °F 68% 30.02 in 10.0 mi WNW 4.6 mph - N/A   Mostly Cloudy
9:53 AM 73.9 °F - 57.9 °F 57% 30.02 in 10.0 mi WNW 4.6 mph - N/A   Mostly Cloudy
10:53 AM 75.9 °F - 59.0 °F 56% 30.01 in 10.0 mi WNW 4.6 mph - N/A   Mostly Cloudy
11:53 AM 78.1 °F - 57.9 °F 50% 29.99 in 10.0 mi WNW 9.2 mph - N/A   Partly Cloudy
12:53 PM 80.1 °F 80.6 °F 57.9 °F 47% 29.96 in 10.0 mi WNW 11.5 mph 16.1 mph N/A   Partly Cloudy
1:53 PM 79.0 °F - 57.9 °F 48% 29.94 in 10.0 mi NW 6.9 mph - N/A   Partly Cloudy
2:53 PM 80.1 °F 80.4 °F 57.0 °F 45% 29.94 in 10.0 mi West 5.8 mph - N/A   Partly Cloudy
3:53 PM 78.1 °F - 57.0 °F 48% 29.94 in 10.0 mi NW 4.6 mph - N/A   Partly Cloudy
4:53 PM 77.0 °F - 54.0 °F 45% 29.93 in 10.0 mi NW 3.5 mph - N/A   Partly Cloudy
5:53 PM 75.9 °F - 53.1 °F 45% 29.95 in 10.0 mi WNW 3.5 mph - N/A   Partly Cloudy
6:53 PM 73.0 °F - 57.0 °F 57% 29.96 in 10.0 mi Calm Calm - N/A   Clear
7:53 PM 73.0 °F - 57.9 °F 59% 29.97 in 10.0 mi Calm Calm - N/A   Clear
8:53 PM 73.0 °F - 55.9 °F 55% 29.97 in 10.0 mi Calm Calm - N/A   Clear
9:53 PM 73.0 °F - 55.9 °F 55% 29.97 in 10.0 mi Calm Calm - N/A   Clear
10:53 PM 73.0 °F - 54.0 °F 51% 29.96 in 10.0 mi Calm Calm - N/A   Scattered Clouds
11:53 PM 72.0 °F - 55.0 °F 55% 29.94 in 10.0 mi Calm Calm - N/A   Partly Cloudy